STARLINK-38046, 69746

Orbit data source: Space-Track

STARLINK-38046, 69746 is a payload satellite owned by SpaceX/Seattle (US) in SSO that was launched on Thu, 02 Jul 2026 UTC via an FALCON 9 launch vehicle from the Air Force Western Test Range (AFWTR). Payload-class satellites include a variety of spacecraft equipped with specific instruments for various scientific and technological missions. These include communications satellites like Starlink; space stations such as the ISS; scientific satellites like the Hubble; Earth observation satellites from companies like Planet Labs, Umbra, and HawkEye 360; GPS; miniature CubeSats for education and research; and military/defense satellites.

Loading next visibility...
Identifier
69746, 2026-150H
Orbit
SSO
Country
Flag of USUS
Related business
Manufacturer
SpaceX/Seattle
Mission
Operational spacecraft
Bus & Motor
STARLINK V2MO, Unknown motor
Mass
575 kg wet, ~530 kg dry
Launch date (UTC)
2026-07-02 (3 weeks ago)
Launch vehicle
FALCON 9
Launch site
Air Force Western Test Range (AFWTR)
Object type
Payload
Rocket body
Debris
Shape & HBR
Unknown shape, 17.7 m
Radar Cross Section
Large (>1 m²)

Expand to show TLE details & history
Last TLE update: 16 hours ago

TLE from 16 hours ago
0 STARLINK-38046
1 69746U 26150H   26202.58335648 -.00061916  00000-0 -41690-3 0  9998
2 69746  97.2854  41.3140 0001291  83.7828 150.2684 15.75209496  4324
Epoch: 2026-07-21T14:00Z
TLE epoch observation values (Epoch: 2026-07-21T14:00:01.999Z)
Latitude
-53.67706°
Longitude
61.9972°
Altitude
365.703 km
Speed
7.688 km/s
True Right ascension
14h 05m 25s
True Declination
-53° 30' 12"
Sunlit
Object was in daylight at epoch
Visualization orbit readout
Latitude
Unknown
Longitude
Unknown
Altitude
Unknown
Speed
Unknown
Apparent Right ascension
Unknown
Apparent Declination
Unknown
Sunlit
N/A
Visualization observer readout
Local Sidereal Time
18:32:52
Azimuth
Unknown
Elevation
Unknown
Doppler factor
Unknown
Orbital elements
Apogee altitude
341.79 km
Perigee altitude
340.055 km
Semi-major axis
6,719.06 km
Eccentricity
0.00013
Inclination
97.2854°
RAAN
41.314°
Arg. of periapsis
83.7828°
True anomaly
150.27574°
Mean anomaly
150.2684°
Eccentric anomaly
150.27207°
Mean motion
3.94076 °/min
Orbital period
91.35 mins
BSTAR
-0.0004169
Loading maneuver chart data...
Computing Atmospheric mass density...
Loading historical data...
Loading historical data...
Loading historical data...
Loading historical data...
Loading historical data...
Loading historical data...
Loading historical data...

Documentation

Showing up to 5 results
|